User: anonymous   Login
Location: Reading
(52.0000°N, 0.0000°E)
Time: 09:09:36
(UTC+01:00)
Language:

Iridium 41 - Orbit

View from above orbital plane
View from above orbital plane
View from above satellite
View from above satellite

Ground track
Ground track

The orbit data is extracted from the following two-line orbital elements,

1 25040U 97069B   16182.40714586 -.00000009  00000-0 -10322-4 0  9998
2 25040  86.3977 168.9928 0002353  80.7877 279.3584 14.34217269975891
Epoch (UTC): 30 June 2016 09:46:17
Eccentricity: 0.0002353
inclination: 86.3977°
perigee height: 776 km
apogee height: 779 km
right ascension of ascending node: 168.9928°
argument of perigee: 80.7877°
revolutions per day: 14.34217269
mean anomaly at epoch: 279.3584°
orbit number at epoch: 97589

The dashed part of the orbit path shows where the satellite is in the earth's shadow,  

DLR